www.pogodaiklimat.ru

Погода и климат >> Архив погоды >> Россия >> Курская область >> Курск


АРХИВ ПОГОДЫ в Курске

Время (UTC), дата Ветер
(напр.,м/с)
 
Видим.   Явления Облачность Т
(С)
Тd
(С)
f
(%)
Тe
(С)
Тes
(С)
Комфортность P
(гПа)
Po
(гПа)
Тmin
(С)
Tmax
(С)
R
(мм)
R24
(мм)
S
(см)
12 9.09 СВ 2 10 км 5/5 1000 м
[Cu med, cong]
+27.1 +9.8 34 +28 +31 жарко 1024.5 996.2
15 9.09 В 1 10 км 3/3 1000 м
[Cu Sc]
+25.1 +10.1 39 +26 +26 жарко 1024.1 995.6
18 9.09 СВ 1 10 км ясно +20.6 +10.3 52 +23 +23 комфорт 1024.8 995.9 +27.5
21 9.09 СВ 2 10 км ясно +18.7 +8.1 50 +20 +20 тепло 1025.2 996.0
00 10.09 В 1 10 км 3/0
[Ci fib]
+17.0 +9.0 59 +18 +18 тепло 1025.8 996.5
03 10.09 ЮВ 1 10 км 4/4 600 м
[Sc]
+16.1 +8.6 61 +17 +17 тепло 1026.6 997.1 +16.1
06 10.09 Ю 2 10 км 6/0
[Ac trans Ci fib]
+19.7 +7.5 45 +21 +24 комфорт 1026.9 997.8 +15.5
09 10.09 Ю 2 10 км 8/3 600 м
[Sc Ac trans Ci fib]
+25.1 +4.1 26 +24 +29 комфорт 1026.7 998.1
12 10.09 ЮВ 2 10 км 8/1 1000 м
[Cu hum Ci fib]
+26.1 +3.5 23 +25 +30 комфорт 1026.0 997.5
15 10.09 ЮВ 2 10 км 4/0
[Ci fib]
+24.6 +3.6 26 +24 +24 комфорт 1025.9 997.3
18 10.09 В 2 10 км ясно +21.0 +4.2 33 +22 +22 комфорт 1027.1 998.1 +26.5
21 10.09 В 1 10 км ясно +17.8 +4.8 42 +19 +19 тепло 1028.3 999.0
00 11.09 В 2 10 км ясно +15.3 +5.7 53 +15 +15 тепло 1029.3 999.7
03 11.09 В 1 10 км ясно +13.8 +5.0 55 +14 +14 тепло 1030.3 1000.5 +13.8
06 11.09 ЮВ 1 10 км ясно +19.7 +5.2 39 +21 +26 комфорт 1030.7 1001.5 +13.2
09 11.09 ЮВ 3 10 км 3/1 1000 м
[Cu hum Ci fib]
+24.8 +3.6 25 +24 +31 комфорт 1029.9 1001.2
12 11.09 ЮВ 3 10 км 3/3 1000 м
[Cu hum]
+25.8 +3.8 24 +25 +29 комфорт 1029.0 1000.4
15 11.09 ЮВ 2 10 км 1/0
[Ci fib]
+24.7 +2.9 24 +24 +24 комфорт 1028.3 999.6
18 11.09 ЮВ 1 10 км ясно +19.4 +3.7 35 +21 +21 комфорт 1029.3 1000.0 +26.2
21 11.09 ЮВ 2 10 км ясно +18.6 +3.7 37 +19 +19 тепло 1029.4 1000.1
00 12.09 ЮВ 1 10 км 6/0
[Ac trans]
+16.7 +5.2 47 +18 +18 тепло 1029.6 1000.1
03 12.09 В 1 10 км 8/5 600 м
[Sc Ac trans]
+15.8 +6.0 52 +17 +17 тепло 1029.9 1000.3 +14.7
06 12.09 Ю 2 10 км 9/4 600 м
[Sc Ac trans]
+18.7 +8.0 50 +20 +21 тепло 1030.0 1000.7 +14.7
09 12.09 Ю 3 10 км 8/3 1000 м
[Cu hum Ac trans]
+24.8 +5.5 29 +24 +28 комфорт 1028.9 1000.2
12 12.09 Ю 1 10 км 8/4 1000 м
[Cu hum Ac trans Ci fib]
+26.0 +4.6 25 +25 +28 комфорт 1027.4 998.9
15 12.09 Ю 1 10 км 8/3 600 м
[Sc diur, vesp Ac trans Ci fib]
+24.5 +4.7 28 +24 +24 комфорт 1026.4 997.7
18 12.09 ЮВ 1 10 км 6/0
[Ac trans Ci fib]
+20.7 +5.9 38 +23 +23 комфорт 1026.7 997.7 +26.8
21 12.09 штиль 0 10 км 8/0
[Ac trans Ci fib]
+14.9 +8.1 64 +15 +15 тепло 1026.6 997.0
00 13.09 штиль 0 10 км 8/3 600 м
[Sc Ac trans Ci fib]
+16.4 +6.6 52 +16 +16 тепло 1025.9 996.5
03 13.09 Ю 1 10 км 8/4 600 м
[Sc Ac trans Ci fib]
+14.4 +6.5 59 +15 +15 тепло 1025.4 995.8 +14.2
06 13.09 ЮЗ 2 10 км 3/0
[Ac As Ci fib]
+19.6 +6.6 43 +21 +24 комфорт 1025.2 996.1 +14.2
09 13.09 ЮЗ 3 10 км 1/1 1000 м
[Cu hum]
+25.8 +3.2 23 +25 +31 комфорт 1023.4 994.9
12 13.09 З 4 10 км 3/1 1000 м
[Cu hum Ci fib]
+26.9 +1.8 20 +25 +29 комфорт 1021.2 992.9
15 13.09 ЮЗ 2 10 км 3/0
[Ci fib]
+24.9 +2.8 24 +24 +24 комфорт 1019.9 991.4
18 13.09 ЮЗ 1 10 км 3/0
[Ac trans]
+21.0 +2.8 30 +22 +22 комфорт 1019.6 990.8 +27.1
21 13.09 З 2 10 км 9/0
[Ac trans]
+18.9 +3.0 35 +20 +20 тепло 1018.7 989.7
00 14.09 З 1 10 км 5/3 600 м
[Sc Ac trans]
+14.8 +6.9 59 +15 +15 тепло 1018.6 989.2
03 14.09 ЮЗ 1 10 км 5/3 600 м
[Sc Ci fib]
+13.6 +8.5 71 +14 +14 тепло 1018.0 988.5 +13.5
06 14.09 З 3 10 км 10/10 600 м
[Sc]
+15.6 +9.7 68 +15 +15 тепло 1017.7 988.5 +13.5
09 14.09 СЗ 2 10 км в посл. час ливневой дождь 10/10 600 м
[Sc]
+16.8 +11.0 69 +17 +17 тепло 1018.1 989.0
12 14.09 СЗ 3-10
{10}
10 км {ливн. осадки} 9/6 600 м
[Sc Ac trans Ci fib]
+19.0 +5.4 41 +20 +21 тепло 1018.5 989.5
15 14.09 СЗ 2
{10}
10 км 4/3 1000 м
[Cu hum Ci fib]
+16.1 +3.4 43 +16 +16 тепло 1019.4 990.2 0.0
18 14.09 СЗ 1 10 км 3/0
[Ac trans]
+11.6 +4.2 60 +12 +12 по сезону 1021.5 991.7 +19.0 0.0
21 14.09 СЗ 1 10 км ясно +8.7 +2.9 67 +8 +8 по сезону 1022.2 992.1
00 15.09 СЗ 1 10 км ясно +7.2 +3.0 75 +6 +6 прохладно 1022.1 991.8
03 15.09 З 1 10 км 6/0
[Ac trans Ci fib]
+6.5 +3.5 81 +6 +6 прохладно 1022.0 991.7 +5.8
06 15.09 З 2 10 км 1/0
[Ac trans]
+10.9 +5.0 67 +10 +13 по сезону 1022.2 992.3 +5.8
09 15.09 З 4 10 км 8/4 1000 м
[Cu hum Ci fib]
+15.5 +3.4 44 +15 +18 тепло 1020.9 991.5
12 15.09 З 4 10 км 9/5 1000 м
[Cu hum Ci fib]
+17.3 +1.4 34 +17 +19 тепло 1019.2 990.1
15 15.09 З 3
{10}
10 км 10/3 600 м
[Sc Ci fib]
+16.5 +0.9 35 +16 +16 тепло 1017.0 987.9
18 15.09 ЮЗ 3 н/о н/о +13.6 +1.0 42 +13 +13 по сезону 1016.3 986.8 +17.7
21 15.09 ЮЗ 3 10 км 4/0
[Ci fib]
+11.8 +2.3 52 +10 +10 по сезону 1014.6 985.0
00 16.09 ЮЗ 3 10 км 6/0
[Ci fib]
+11.2 +3.1 57 +10 +10 по сезону 1012.2 982.6
03 16.09 ЮЗ 3 10 км 9/0
[Ac trans Ci fib]
+10.4 +3.2 61 +9 +9 по сезону 1009.0 979.5 +10.4
06 16.09 З 4 10 км 9/5 1000 м
[Sc Ac trans Ci fib]
+12.8 +4.4 57 +11 +12 по сезону 1008.3 979.0 +10.3
09 16.09 ЮЗ 3 10 км в посл. час ливневой дождь 10/10 600 м
[Cb cap]
+14.1 +7.1 63 +13 +13 по сезону 1007.6 978.5

 

Местоположение метеостанции Курск (Курская область, Россия): широта 51.77 долгота 36.17 высота над уровнем моря 247 м.

В архиве по умолчанию представлена погода в Курске за последнюю неделю. Архивные данные за месяц целиком и за предыдущие месяцы, начиная с января 2011 года, Вы можете получить, выбрав интересующий диапазон дат из раскрывающегося списка и нажав кнопку "Ввод!".


*Определитесь, кто Вы:
робот инопланетянин человек

Внимание! Время в таблицах - всемирное. Для получения местного времени необходимо прибавить поправку, которая равна 3 ч.

Смотрите также архив погоды в соседних городах и на ближайших метеорологических станциях:

Погода в Курчатове (Курская область, Россия) (36 км)
Погода в Фатеже (Курская область, Россия) (40 км)
Погода в Понырях (Курская область, Россия) (62 км)
Погода в Обояни (Курская область, Россия) (64 км)
Погода в Тиме (Курская область, Россия) (68 км)
Погода в Железногорске (Курская область, Россия) (85 км)
Погода в Рыльск (Курская область, Россия) (105 км)
Погода в Богородицком (Белгородская область, Россия) (106 км)
Погода в Дмитровск-Орловский (Орловская область, Россия) (107 км)
Погода в Готне (Белгородская область, Россия) (111 км)

Пояснения к столбцам:

Ветер - указаны скорость ветра в м/с - средняя за 10 мин, порывы в срок и между сроками (в фигурных скобках) и направление, откуда дует ветер: С - северный, СВ - северо-восточный, В - восточный, ЮВ - юго-восточный, Ю - южный, ЮЗ - юго-западный, З - западный, СЗ - северо-западный.
Видимость - горизонтальная дальность видимости в метрах или километрах. При видимости от 1 до 10 км при отсутствии осадков обычно наблюдается дымка, при ухудшении видимости до 1 км и менее - туман. В сухую погоду видимость может ухудшаться дымом, пылью или мглою.
Явления - указаны атмосферные явления, наблюдавшиеся в срок или в последний час перед сроком; фигурными скобками обозначены явления, наблюдавшиеся между сроками (за 1-3 часа до срока); квадратными скобками обозначены град или гололедные отложения с указанием их диаметра в мм.
Облачность - указаны через наклонную черту общая и нижняя облачность в баллах и высота нижней границы облаков в метрах; квадратными скобками обозначены формы облаков: Ci - перистые, Cs - перисто-слоистые, Cc - перисто-кучевые, Ac - высококучевые, As - высокослоистые, Sc - слоисто-кучевые, Ns - слоисто-дождевые, Cu - кучевые, Cb - кучево-дождевые. Подробнее классификацию облаков см. в Атласе облаков (PDF).
T - Температура воздуха - температура, измеренная на высоте 2 м над землей.
Td - Температура точки росы - температура, при понижении до которой содержащийся в воздухе водяной пар достигнет насыщения.
f - Относительная влажность воздуха - влажноcть воздуха, измеренная на высоте 2 м над землей.
Te - Эффективная температура - температура, которую ощущает одетый по сезону человек в тени. Характеристика душности погоды. При расчете учитывается влияние влажности воздуха и скорости ветра на теплоощущения человека.
Tes - Эффективная температура на солнце - температура, которую ощущает человек, с поправкой на солнечный нагрев. Характеристика знойности погоды. Зависит от высоты солнца над горизонтом, облачности и скорости ветра. Ночью, в пасмурную погоду, а также при ветре 12 м/с и более поправка равна нулю.
P - Атмосферное давление - приведенное к уровню моря атмосферное давление.
Po - Атмосферное давление - измеренное на уровне метеостанции атмосферное давление.
Tmin - Минимальная температура - минимум температуры воздуха на высоте 2 м над землей.
Tmax - Максимальная температура - максимум температуры воздуха на высоте 2 м над землей.
R - Количество осадков - Количество выпавших осадков за период времени, мм. При наведении курсора мыши на число - период времени, за который выпало указанное количество осадков.
R24 - Количество осадков - Количество выпавших осадков за 24 часа, мм.
S - Снежный покров - Высота снежного покрова, см. При наведении курсора мыши на число - состояние снежного покрова и степень покрытия местности в баллах.